User: anonymous
Location: Deep South Regional Star Gaze
(30.9929°N, 90.9586°W)
Time: 07:30:32
(UTC-05:00)
Language:

H-2A R/B - Orbit

View from above orbital plane
View from above orbital plane
View from above satellite
View from above satellite

Ground track
Ground track

The orbit data is extracted from the following two-line orbital elements,

1 26899U 01038B   14105.51800084  .00001087  00000-0  49954-3 0  9544
2 26899 027.8957 171.5696 7141625 147.5479 357.7016 02.43625037108002
Epoch (UTC): 15 April 2014 12:25:55
Eccentricity: 0.7141625
inclination: 27.8957°
perigee height: 290 km
apogee height: 33613 km
right ascension of ascending node: 171.5696°
argument of perigee: 147.5479°
revolutions per day: 2.43625037
mean anomaly at epoch: 357.7016°
orbit number at epoch: 10800

The dashed part of the orbit path shows where the satellite is in the earth's shadow,  

DLR